Location: Unspecified
(51.3762°N, 0.0000°E)
Time: 20:26:29
(UTC+00:00)

nSIGHT-1 - Pass Details

Date: 29 August 2019
Orbit: 337 x 344 km, 51.6° (Epoch: 14 October)

Event Time Altitude Azimuth Distance (km) Brightness Sun altitude
Exits shadow 03:45:20 20° 274° (W) 868 ? -12.4°
Maximum altitude 03:47:10 82° 359° (N) 347 ? -12.2°
Drops below altitude 10° 03:50:01 10° 89° (E) 1,282 ? -11.8°
Sets 03:52:01 0° 91° (E) 2,121 ? -11.5°
